Jacksonville Craig, FL

2:19 PM EDT on May 25, 2017 (GMT -0400)
Craig Municipal

Weather History for KCRG - April, 2013

Change the Weather History Date:

Tuesday, April 23, 2013

  Actual Average Record
Temperature  
Mean Temperature 63 °F -  
Max Temperature 69 °F 77 °F 88 °F (1999)
Min Temperature 57 °F 57 °F 50 °F (2007)
Degree Days  
Heating Degree Days 2    
Growing Degree Days 13 (Base 50)    
Moisture  
Dew Point 55 °F    
Average Humidity 71    
Maximum Humidity 89    
Minimum Humidity 61    
Precipitation  
Precipitation 0.00 in - - ()
Sea Level Pressure  
Sea Level Pressure 30.14 in    
Wind  
Wind Speed 8 mph (NE)    
Max Wind Speed 13 mph    
Max Gust Speed 20 mph    
Visibility 10 miles    
Events      
Averages and records for this station are not official NWS values.
T = Trace of Precipitation, MM = Missing Value Source: NWS Daily Summary

Daily Weather History Graph

Daily Weather History Graph

Search for Another Location

Airport or City:

Trip Planner

Search our weather history database for the weather conditions in past years. The results will help you decide how hot, cold, wet, or windy it might be!

Date:

Astronomy

Apr. 23, 2013 Rise Set
Actual Time 6:50 AM EDT 7:58 PM EDT
Civil Twilight 6:25 AM EDT 8:23 PM EDT
Nautical Twilight 5:55 AM EDT 8:53 PM EDT
Astronomical Twilight 5:24 AM EDT 9:24 PM EDT
Moon 5:59 PM EDT (4/23) 5:07 AM EDT (4/23)
Length of Visible Light 13h 58m
Length of Day
13h 08m
Waxing Gibbous, 94% of the Moon is Illuminated
Apr 23
Waxing Gibbous
Apr 25
Full
May 2
Last Quarter
May 9
New
May 18
First Quarter

Hourly Weather History & Observations

Time (EDT) Temp. Dew Point Humidity Pressure Visibility Wind Dir Wind Speed Gust Speed Precip Events Conditions
12:53 AM 64.0 °F 55.9 °F 75% 30.12 in 10.0 mi NE 10.4 mph - N/A   Clear
1:53 AM 64.0 °F 55.9 °F 75% 30.12 in 10.0 mi NNE 8.1 mph - N/A   Clear
2:53 AM 63.0 °F 55.0 °F 75% 30.10 in 10.0 mi NE 6.9 mph - N/A   Clear
3:53 AM 63.0 °F 54.0 °F 72% 30.09 in 10.0 mi NE 10.4 mph - N/A   Clear
4:53 AM 63.0 °F 54.0 °F 72% 30.09 in 10.0 mi NNE 9.2 mph - N/A   Clear
5:51 AM 62.6 °F 55.4 °F 77% 30.10 in 10.0 mi NE 5.8 mph - N/A   Mostly Cloudy
6:22 AM 62.6 °F 55.4 °F 77% 30.11 in 10.0 mi NE 4.6 mph - N/A   Scattered Clouds
6:53 AM 61.0 °F 54.0 °F 78% 30.12 in 10.0 mi NNE 5.8 mph - N/A   Partly Cloudy
7:53 AM 64.0 °F 55.0 °F 73% 30.14 in 10.0 mi NE 8.1 mph - N/A   Scattered Clouds
8:53 AM 64.9 °F 55.0 °F 70% 30.16 in 10.0 mi NE 11.5 mph 19.6 mph N/A   Scattered Clouds
9:53 AM 66.0 °F 55.0 °F 68% 30.17 in 10.0 mi NNE 12.7 mph - N/A   Scattered Clouds
10:53 AM 68.0 °F 55.0 °F 63% 30.18 in 10.0 mi NE 10.4 mph 17.3 mph N/A   Scattered Clouds
11:53 AM 66.9 °F 55.0 °F 66% 30.19 in 10.0 mi NNE 10.4 mph 19.6 mph N/A   Partly Cloudy
12:53 PM 68.0 °F 54.0 °F 61% 30.17 in 10.0 mi East 11.5 mph 17.3 mph N/A   Partly Cloudy
1:53 PM 69.1 °F 55.0 °F 61% 30.17 in 10.0 mi ENE 9.2 mph 17.3 mph N/A   Clear
2:26 PM 68.0 °F 55.4 °F 64% 30.16 in 10.0 mi ENE 9.2 mph 18.4 mph N/A   Mostly Cloudy
2:34 PM 68.0 °F 55.4 °F 64% 30.16 in 10.0 mi ENE 11.5 mph 18.4 mph N/A   Scattered Clouds
2:53 PM 68.0 °F 55.0 °F 63% 30.16 in 10.0 mi NE 11.5 mph - N/A   Partly Cloudy
3:53 PM 68.0 °F 54.0 °F 61% 30.16 in 10.0 mi East 9.2 mph 19.6 mph N/A   Partly Cloudy
4:53 PM 66.9 °F 54.0 °F 63% 30.15 in 10.0 mi East 10.4 mph - N/A   Partly Cloudy
5:53 PM 66.0 °F 54.0 °F 65% 30.14 in 10.0 mi NE 11.5 mph - N/A   Clear
6:53 PM 64.9 °F 54.0 °F 68% 30.15 in 10.0 mi NE 6.9 mph - N/A   Partly Cloudy
7:53 PM 62.1 °F 54.0 °F 75% 30.15 in 10.0 mi East 3.5 mph - N/A   Clear
8:53 PM 60.1 °F 55.0 °F 83% 30.15 in 10.0 mi Calm Calm - N/A   Clear
9:53 PM 59.0 °F 54.0 °F 83% 30.17 in 10.0 mi Calm Calm - N/A   Clear
10:53 PM 57.9 °F 53.1 °F 84% 30.17 in 10.0 mi Calm Calm - N/A   Clear
11:53 PM 57.0 °F 54.0 °F 89% 30.16 in 10.0 mi Calm Calm - N/A   Clear